Wind_Speed
46 47 47 47 49 50 51 50 50 49 48 47 47 47 47 48 49 50 49 49 49 49 49 48 47 47 47 47 47 46 46 46 45 45 46 47 48 49 49 49 49 48 48
47 47 48 48 48 48 49 50 50 48 48 48 48 48 48 49 49 49 49 49 49 49 48 48 48 48 48 48 47 46 47 47 47 46 46 46 48 48 48 48 49 50 50
47 46 47 47 46 46 46 47 48 48 48 48 48 49 48 47 47 47 48 48 48 48 47 47 47 47 47 48 48 48 48 47 46 46 46 46 45 46 47 48 48 48 48
44 44 45 45 45 46 45 45 45 46 47 47 47 47 47 46 46 46 45 46 46 46 46 46 46 47 47 47 48 48 48 47 46 46 45 46 45 45 45 45 45 45 46
42 43 43 44 44 44 44 45 45 45 46 47 47 46 45 44 44 44 44 45 46 46 46 45 45 46 46 47 47 47 47 46 45 45 45 44 45 45 45 45 44 43 43
41 42 42 43 44 43 43 43 44 45 45 46 46 44 42 42 42 42 42 43 44 44 44 44 45 45 46 46 46 45 45 46 46 45 44 44 44 43 43 44 45 43 42
40 41 41 42 42 43 43 42 43 44 44 44 44 44 43 42 42 42 41 42 42 43 43 43 44 44 44 43 43 44 44 44 44 44 44 43 42 42 43 44 44 43 43
38 39 40 40 41 42 42 43 42 42 43 42 43 43 43 42 42 42 41 41 40 41 41 41 41 40 40 40 41 41 41 41 43 43 43 43 42 42 43 44 43 43 43
37 37 37 37 39 39 40 42 42 42 41 41 41 41 42 42 41 41 41 40 40 40 39 39 39 39 39 40 40 41 41 41 42 42 43 42 43 43 43 43 43 42 42
34 33 34 35 36 37 38 39 39 40 39 39 39 39 39 40 40 40 40 40 39 39 38 37 37 38 39 40 41 41 41 41 41 41 42 42 42 42 42 43 42 43 43
32 32 33 34 35 36 36 36 37 36 36 37 37 36 37 37 38 38 39 39 39 38 38 38 38 38 38 39 40 41 41 41 41 41 41 41 41 41 41 41 42 42 42
33 32 32 33 34 35 35 34 34 35 35 35 35 35 35 36 36 36 36 37 37 37 37 37 37 38 38 38 39 39 40 40 40 40 40 40 40 40 40 41 42 42 42
32 32 33 33 34 34 34 34 33 34 34 34 35 36 35 35 35 35 35 36 36 36 36 35 36 36 37 38 39 39 39 38 38 38 39 39 39 39 40 41 41 41 41
31 31 31 32 32 32 32 32 33 33 33 34 34 35 36 35 34 33 33 34 34 34 34 35 35 35 36 38 38 37 37 37 37 37 38 39 39 39 39 39 40 40 40
29 29 29 29 29 30 30 30 31 32 33 34 34 34 34 33 33 33 33 33 33 33 34 34 35 35 35 36 37 37 37 37 37 37 38 38 38 38 39 39 40 40 39
28 28 28 28 27 27 28 28 29 30 30 31 31 31 31 32 32 33 34 33 33 33 35 35 35 35 34 34 35 35 36 37 37 36 36 37 37 38 38 39 39 39 39
26 27 27 27 27 27 27 27 27 27 28 29 29 29 29 30 30 32 32 32 32 32 32 33 34 35 34 34 35 35 35 36 36 37 37 38 37 38 38 38 39 39 39
25 26 26 26 26 26 26 26 25 26 26 28 29 30 30 30 30 31 31 31 31 31 32 32 32 32 32 33 33 34 34 35 36 36 37 37 37 38 39 39 39 39 38
24 24 25 25 25 26 26 26 25 26 27 27 29 29 30 30 30 30 30 30 31 31 31 31 31 30 31 32 33 34 34 35 35 36 36 36 37 37 38 39 38 38 37
24 24 24 24 24 24 25 25 26 26 26 27 28 29 29 30 30 30 30 30 30 30 30 30 30 30 31 31 32 33 34 35 35 36 36 36 36 36 36 36 36 35 34
24 23 23 23 23 23 24 25 25 26 26 26 27 28 28 28 29 29 29 28 28 28 28 29 29 30 30 30 31 33 34 35 36 36 36 36 35 35 35 34 34 33 32
23 23 22 22 22 22 23 24 24 24 25 25 25 26 26 26 27 27 28 28 27 27 27 28 28 29 30 31 32 33 34 35 35 34 34 34 34 33 33 33 32 31 30
23 22 21 21 21 21 22 23 23 23 23 23 23 24 25 26 26 27 27 28 27 27 27 28 29 30 30 31 32 33 33 33 33 33 33 32 32 32 32 31 30 30 29
22 21 20 20 20 21 21 21 21 21 21 22 22 23 24 25 26 26 27 27 27 28 28 29 29 30 31 31 32 33 33 33 32 32 31 31 30 30 30 29 28 28 27
19 19 19 19 19 19 19 19 20 21 21 22 22 23 23 24 25 25 26 26 27 28 29 29 30 31 31 31 31 32 31 30 30 30 29 28 28 28 27 27 26 25 25
19 19 19 18 19 19 19 20 20 21 22 22 23 23 24 24 25 25 26 26 27 28 29 30 30 31 31 30 30 30 29 28 28 27 27 26 26 25 25 24 23 23 23
Wind_Direction
267 267 266 264 263 261 261 260 259 258 259 260 262 263 263 264 264 264 264 263 263 264 265 266 267 268 270 273 274 275 276 277 277 278 279 279 281 283 282 283 285 286 287
268 268 266 264 263 263 262 259 258 258 259 260 262 263 264 265 265 264 264 264 263 265 266 267 267 268 270 272 274 274 275 276 277 278 279 280 281 281 282 283 284 286 287
268 268 266 264 263 262 261 260 259 259 260 262 262 263 264 265 265 264 264 264 264 265 266 267 267 268 270 272 273 274 275 276 277 277 279 281 282 282 283 283 284 285 286
269 267 267 264 262 261 260 260 260 260 261 261 262 263 263 264 265 265 264 264 264 266 266 266 267 268 270 272 274 274 275 276 276 277 279 282 283 284 285 285 285 286 286
270 268 267 264 262 261 261 260 260 260 261 262 262 263 261 262 264 264 264 265 265 266 266 267 268 269 270 272 274 274 275 276 277 279 280 283 284 285 286 286 286 287 287
271 269 267 264 262 261 260 259 260 260 261 261 261 260 260 260 262 263 264 265 265 266 267 268 269 269 271 273 274 275 276 277 278 279 281 282 284 285 286 287 287 286 285
272 270 267 264 261 261 260 260 260 260 261 262 259 259 259 260 261 263 264 266 265 266 266 267 269 270 272 272 274 274 276 277 277 278 280 282 284 285 287 288 287 285 285
274 272 268 265 263 262 261 261 261 261 259 260 258 257 258 258 261 263 264 265 265 265 266 268 269 271 271 272 274 275 276 278 277 277 280 282 283 286 288 288 286 286 285
276 273 269 266 264 263 263 263 262 261 259 258 257 256 257 257 260 262 264 264 264 265 267 267 268 270 271 272 273 275 278 279 278 277 279 282 284 286 287 287 286 286 285
277 275 270 267 265 265 265 263 262 260 258 257 256 257 257 257 259 261 263 263 263 265 266 267 268 269 271 273 274 276 278 279 279 279 280 282 284 285 286 287 287 286 286
276 273 270 271 268 267 266 264 262 261 258 257 257 258 259 259 260 261 262 263 265 267 269 270 269 270 271 273 275 276 277 279 279 279 280 282 283 284 285 287 287 288 288
275 274 274 272 268 266 266 265 263 261 260 259 258 260 261 262 262 261 262 263 265 267 269 271 271 270 271 273 275 277 279 279 279 280 280 282 283 284 286 287 288 289 289
276 276 275 274 270 268 267 265 264 263 261 260 260 261 263 264 265 264 265 265 267 267 268 270 270 270 272 274 276 277 279 281 281 281 280 281 283 284 286 287 289 289 289
277 278 276 273 270 268 266 265 264 263 263 262 261 261 262 263 265 266 266 267 267 266 267 268 269 271 273 276 276 277 279 281 281 280 280 281 282 284 285 288 289 289 290
280 279 279 275 270 267 267 266 265 264 263 263 262 260 261 262 263 265 265 267 269 269 268 269 270 272 274 275 275 275 277 279 280 280 280 281 281 283 285 287 289 290 290
282 280 278 274 271 269 268 267 266 264 262 261 260 260 261 261 263 265 266 268 271 271 272 272 273 274 275 276 276 277 277 278 279 279 281 282 282 283 285 288 290 291 291
281 280 278 275 271 269 268 267 265 262 261 260 259 260 261 262 264 266 267 268 270 272 273 274 274 275 276 277 278 280 280 281 281 281 284 285 284 284 286 288 289 290 291
283 280 276 273 270 268 267 265 264 263 262 261 261 262 263 265 266 267 267 268 269 270 272 274 274 275 276 278 280 281 283 283 283 284 285 285 285 285 286 288 289 289 289
287 283 278 273 271 270 268 266 265 265 265 264 263 263 265 266 266 267 267 268 270 271 272 273 273 274 275 278 280 282 284 285 286 286 286 285 285 285 287 287 288 289 289
288 284 281 277 274 272 271 270 270 270 270 269 268 267 267 266 266 267 268 268 269 270 271 272 273 273 275 278 280 282 285 286 287 286 285 285 285 285 286 287 288 288 288
290 286 283 280 277 275 274 274 273 272 272 272 270 269 268 267 266 267 267 268 268 270 273 275 275 275 277 279 281 283 285 287 288 287 286 285 285 286 287 288 288 287 287
288 287 284 281 277 276 275 275 274 274 273 273 273 272 271 269 267 267 268 268 268 270 274 277 279 280 280 280 282 284 285 286 286 286 286 286 287 288 288 288 289 289 287
286 286 285 282 278 277 276 276 274 272 272 273 273 273 272 271 271 270 270 269 269 271 275 278 280 282 283 284 285 286 288 287 286 285 285 286 287 288 288 288 288 288 286
284 284 284 283 282 280 278 276 275 274 272 272 273 273 273 273 272 271 270 271 272 274 276 279 282 284 285 286 287 288 288 287 287 286 285 285 286 288 288 287 288 287 285
283 282 282 282 283 283 281 278 276 275 274 274 274 275 276 275 274 274 273 273 275 277 279 280 282 285 287 288 289 290 289 288 288 287 287 287 287 288 288 288 288 288 287
282 282 281 281 283 283 283 282 281 277 276 276 276 277 279 279 278 276 275 274 275 277 279 281 283 286 287 289 290 290 289 288 288 288 289 288 288 289 288 287 287 288 287
Height
5651 5650 5650 5651 5651 5652 5654 5655 5657 5659 5661 5663 5664 5665 5665 5666 5667 5669 5670 5671 5673 5674 5676 5677 5678 5679 5679 5679 5679 5678 5678 5678 5678 5679 5678 5677 5676 5674 5673 5672 5670 5668 5666
5638 5637 5637 5638 5638 5639 5641 5643 5644 5646 5648 5650 5651 5652 5653 5654 5655 5656 5657 5658 5660 5662 5664 5665 5666 5667 5667 5667 5666 5666 5666 5665 5665 5665 5665 5664 5663 5661 5660 5659 5657 5655 5653
5624 5624 5624 5624 5625 5627 5628 5630 5632 5634 5636 5637 5638 5640 5640 5641 5642 5643 5645 5646 5648 5649 5651 5652 5653 5654 5654 5654 5654 5654 5653 5653 5653 5653 5652 5651 5650 5649 5648 5646 5644 5642 5640
5610 5610 5610 5611 5613 5615 5616 5618 5620 5622 5623 5625 5626 5627 5628 5629 5630 5632 5633 5634 5636 5637 5639 5640 5640 5641 5641 5641 5641 5641 5641 5641 5640 5640 5640 5639 5637 5636 5635 5633 5632 5629 5627
5598 5598 5598 5599 5600 5602 5604 5606 5608 5609 5611 5612 5613 5615 5616 5618 5619 5620 5622 5623 5624 5626 5627 5628 5629 5629 5629 5629 5629 5629 5628 5628 5628 5627 5627 5626 5625 5624 5623 5621 5619 5618 5616
5586 5586 5586 5587 5588 5590 5592 5594 5596 5597 5599 5600 5601 5603 5605 5607 5608 5610 5611 5612 5613 5614 5615 5616 5617 5617 5617 5617 5617 5616 5616 5616 5616 5615 5615 5614 5613 5612 5610 5608 5607 5606 5604
5576 5575 5575 5576 5577 5579 5580 5582 5583 5585 5587 5588 5590 5592 5594 5596 5598 5599 5600 5601 5602 5603 5604 5605 5605 5605 5605 5605 5605 5605 5604 5603 5603 5604 5603 5602 5601 5600 5599 5597 5594 5592 5591
5565 5565 5564 5565 5566 5568 5569 5570 5572 5573 5575 5577 5579 5581 5583 5585 5587 5588 5589 5590 5591 5592 5593 5593 5594 5594 5594 5594 5594 5593 5593 5592 5592 5591 5591 5591 5589 5587 5586 5585 5582 5581 5579
5556 5555 5555 5555 5557 5558 5559 5560 5560 5562 5564 5566 5568 5570 5572 5574 5576 5577 5578 5579 5580 5582 5582 5583 5583 5583 5583 5583 5583 5583 5582 5581 5580 5579 5579 5579 5578 5576 5574 5572 5570 5568 5567
5548 5547 5547 5547 5548 5548 5549 5549 5550 5551 5553 5555 5557 5559 5561 5563 5565 5566 5567 5568 5570 5571 5572 5572 5572 5572 5572 5572 5572 5572 5571 5570 5569 5569 5568 5567 5566 5564 5562 5560 5558 5556 5554
5541 5540 5539 5539 5538 5539 5539 5540 5541 5542 5544 5546 5548 5549 5551 5553 5554 5555 5557 5558 5559 5560 5561 5562 5562 5562 5562 5562 5562 5561 5560 5559 5558 5558 5557 5556 5555 5553 5551 5549 5546 5544 5542
5533 5532 5531 5530 5529 5529 5529 5530 5531 5533 5535 5536 5538 5540 5541 5543 5544 5546 5547 5548 5549 5550 5551 5552 5552 5552 5552 5552 5551 5550 5549 5548 5548 5547 5546 5545 5544 5542 5540 5538 5536 5533 5531
5524 5523 5522 5521 5521 5521 5521 5522 5523 5524 5526 5528 5530 5531 5533 5534 5535 5536 5537 5538 5539 5540 5541 5542 5542 5541 5541 5541 5541 5540 5539 5538 5537 5536 5536 5535 5533 5531 5530 5527 5525 5522 5520
5516 5514 5513 5512 5512 5512 5513 5514 5515 5516 5517 5519 5521 5523 5524 5526 5527 5528 5529 5529 5530 5531 5531 5531 5532 5531 5531 5531 5531 5530 5529 5528 5527 5526 5525 5524 5523 5521 5519 5516 5514 5512 5509
5508 5506 5505 5504 5504 5504 5504 5505 5506 5507 5508 5510 5512 5513 5515 5516 5517 5518 5519 5520 5521 5521 5522 5522 5522 5522 5522 5521 5521 5520 5519 5518 5517 5516 5515 5513 5512 5510 5508 5506 5503 5501 5498
5500 5499 5498 5497 5496 5496 5496 5497 5497 5499 5500 5501 5503 5504 5506 5507 5508 5509 5509 5510 5511 5512 5512 5512 5512 5512 5512 5511 5511 5510 5509 5508 5507 5506 5504 5503 5501 5499 5497 5495 5492 5490 5487
5493 5491 5490 5490 5489 5489 5489 5490 5490 5491 5492 5493 5495 5496 5497 5498 5499 5500 5500 5501 5502 5503 5503 5503 5503 5503 5502 5502 5501 5500 5499 5498 5497 5495 5494 5492 5490 5488 5486 5484 5481 5479 5476
5486 5485 5484 5483 5483 5483 5483 5483 5483 5484 5485 5486 5487 5488 5489 5489 5490 5491 5492 5492 5493 5494 5494 5494 5494 5494 5493 5493 5492 5491 5489 5488 5487 5485 5484 5481 5479 5477 5475 5473 5470 5468 5465
5480 5478 5477 5476 5476 5476 5476 5476 5476 5477 5477 5478 5478 5479 5480 5481 5481 5482 5483 5484 5485 5485 5485 5485 5485 5485 5484 5484 5483 5481 5480 5479 5477 5475 5473 5471 5468 5466 5464 5462 5459 5457 5455
5473 5472 5470 5470 5469 5469 5469 5469 5469 5469 5469 5470 5470 5471 5471 5472 5473 5474 5475 5475 5476 5476 5476 5476 5476 5476 5475 5474 5473 5472 5470 5469 5467 5464 5462 5460 5458 5455 5453 5451 5449 5447 5445
5467 5465 5464 5463 5463 5462 5462 5462 5462 5462 5462 5462 5462 5462 5463 5464 5464 5465 5466 5466 5467 5467 5468 5467 5467 5467 5466 5465 5464 5462 5461 5458 5456 5454 5452 5449 5447 5445 5443 5441 5439 5437 5435
5461 5459 5458 5457 5456 5456 5455 5455 5455 5455 5454 5454 5454 5454 5454 5455 5456 5456 5457 5458 5458 5458 5459 5458 5458 5457 5456 5455 5454 5452 5450 5448 5446 5443 5441 5439 5437 5435 5433 5431 5429 5428 5426
5454 5453 5452 5450 5450 5449 5448 5448 5447 5447 5447 5447 5447 5447 5447 5447 5448 5448 5449 5449 5449 5450 5450 5449 5449 5448 5446 5445 5444 5442 5440 5437 5435 5433 5431 5429 5427 5426 5424 5422 5420 5418 5417
5448 5447 5446 5445 5444 5443 5442 5441 5441 5441 5440 5440 5440 5440 5440 5440 5440 5440 5440 5441 5441 5441 5441 5441 5440 5439 5437 5436 5434 5432 5430 5427 5425 5423 5422 5420 5418 5417 5415 5413 5411 5410 5408
5441 5441 5440 5439 5438 5437 5436 5435 5435 5434 5434 5434 5433 5433 5433 5433 5433 5432 5433 5433 5433 5433 5433 5432 5432 5430 5429 5427 5425 5422 5420 5418 5416 5414 5413 5411 5410 5408 5407 5405 5404 5402 5401
5436 5435 5434 5433 5432 5432 5431 5430 5429 5428 5428 5427 5427 5427 5426 5426 5425 5425 5425 5425 5425 5424 5424 5424 5423 5421 5420 5418 5416 5414 5412 5410 5408 5406 5405 5403 5402 5400 5399 5398 5396 5395 5394